Location: Gammelsbach
(49.5261°N, 8.9630°E)
Time: 18:02:39
(UTC+00:00)

Cosmos 1464 Rocket - Pass Details

Date: 17 June 2025
Orbit: 951 x 1001 km, 82.9° (Epoch: 13 July)

Event Time Altitude Azimuth Distance (km) Brightness Sun altitude
Rises 22:50:04 0° 347° (NNW) 3,706 8.8 -16.6°
Reaches altitude 10° 22:52:39 10° 343° (NNW) 2,746 7.7 -16.7°
Maximum altitude 22:58:44 54° 268° (W) 1,171 4.4 -16.8°
Enters shadow 23:02:34 22° 201° (SSW) 1,951 5.1 -16.9°
